Time,TemperatureF,DewpointF,PressureIn,WindDirection,WindDirectionDegrees,WindSpeedMPH,WindSpeedGustMPH,Humidity,HourlyPrecipIn,Conditions,Clouds,dailyrainin,SoftwareType,DateUTC
2013-04-23 00:00:00,63.6,16.6,29.75,South,175,0.0,3.0,16,0.00,,---,0.00,VWS V14.01,2013-04-23 07:00:00,
2013-04-23 00:01:00,63.9,16.9,29.75,South,173,1.0,3.0,16,0.00,,---,0.00,VWS V14.01,2013-04-23 07:01:00,
2013-04-23 00:05:00,64.0,16.9,29.75,South,175,0.0,3.0,16,0.00,,---,0.00,VWS V14.01,2013-04-23 07:05:00,
2013-04-23 00:06:00,64.1,17.0,29.75,South,169,1.0,5.0,16,0.00,,---,0.00,VWS V14.01,2013-04-23 07:06:00,
2013-04-23 00:10:00,64.1,17.0,29.74,South,171,1.0,5.0,16,0.00,,---,0.00,VWS V14.01,2013-04-23 07:10:00,
2013-04-23 00:11:00,64.0,16.9,29.74,South,174,4.0,6.0,16,0.00,,---,0.00,VWS V14.01,2013-04-23 07:11:00,
2013-04-23 00:15:00,64.1,17.0,29.74,SSE,165,6.0,6.0,16,0.00,,---,0.00,VWS V14.01,2013-04-23 07:15:00,
2013-04-23 00:16:00,64.2,17.1,29.74,South,175,8.0,8.0,16,0.00,,---,0.00,VWS V14.01,2013-04-23 07:16:00,
2013-04-23 00:20:00,64.3,17.2,29.74,South,172,6.0,10.0,16,0.00,,---,0.00,VWS V14.01,2013-04-23 07:20:00,
2013-04-23 00:21:00,64.5,17.3,29.74,South,190,5.0,7.0,16,0.00,,---,0.00,VWS V14.01,2013-04-23 07:21:00,
2013-04-23 00:25:00,64.5,17.3,29.74,South,191,2.0,9.0,16,0.00,,---,0.00,VWS V14.01,2013-04-23 07:25:00,
2013-04-23 00:26:00,64.5,17.3,29.74,South,179,7.0,9.0,16,0.00,,---,0.00,VWS V14.01,2013-04-23 07:26:00,
2013-04-23 00:30:00,64.6,17.4,29.74,South,173,7.0,11.0,16,0.00,,---,0.00,VWS V14.01,2013-04-23 07:30:00,
2013-04-23 00:31:00,64.7,17.5,29.74,South,188,4.0,7.0,16,0.00,,---,0.00,VWS V14.01,2013-04-23 07:31:00,
2013-04-23 00:35:00,64.8,17.6,29.74,South,175,5.0,10.0,16,0.00,,---,0.00,VWS V14.01,2013-04-23 07:35:00,
2013-04-23 00:36:00,64.8,17.6,29.74,South,169,3.0,9.0,16,0.00,,---,0.00,VWS V14.01,2013-04-23 07:36:00,
2013-04-23 00:40:00,64.8,17.6,29.74,SSW,196,4.0,11.0,16,0.00,,---,0.00,VWS V14.01,2013-04-23 07:40:00,
2013-04-23 00:41:00,64.8,17.6,29.74,South,178,9.0,11.0,16,0.00,,---,0.00,VWS V14.01,2013-04-23 07:41:00,
2013-04-23 00:45:00,64.8,17.6,29.73,South,181,1.0,9.0,16,0.00,,---,0.00,VWS V14.01,2013-04-23 07:45:00,
2013-04-23 00:50:00,64.7,17.5,29.74,South,186,4.0,5.0,16,0.00,,---,0.00,VWS V14.01,2013-04-23 07:50:00,
2013-04-23 00:55:00,64.5,17.3,29.74,South,184,1.0,8.0,16,0.00,,---,0.00,VWS V14.01,2013-04-23 07:55:00,
2013-04-23 01:00:00,64.0,16.9,29.74,South,188,4.0,9.0,16,0.00,,---,0.00,VWS V14.01,2013-04-23 08:00:00,
2013-04-23 01:05:00,63.7,16.7,29.73,South,186,8.0,8.0,16,0.00,,---,0.00,VWS V14.01,2013-04-23 08:05:00,
2013-04-23 01:10:00,63.7,16.7,29.73,SSE,164,6.0,9.0,16,0.00,,---,0.00,VWS V14.01,2013-04-23 08:10:00,
2013-04-23 01:15:00,63.8,16.8,29.73,SSW,193,4.0,10.0,16,0.00,,---,0.00,VWS V14.01,2013-04-23 08:15:00,
2013-04-23 01:20:00,64.1,17.0,29.73,SW,229,10.0,11.0,16,0.00,,---,0.00,VWS V14.01,2013-04-23 08:20:00,
2013-04-23 01:25:00,65.0,17.8,29.72,WSW,240,5.0,12.0,16,0.00,,---,0.00,VWS V14.01,2013-04-23 08:25:00,
2013-04-23 01:30:00,65.2,17.9,29.72,SW,229,5.0,11.0,16,0.00,,---,0.00,VWS V14.01,2013-04-23 08:30:00,
2013-04-23 01:35:00,65.0,19.2,29.72,SW,234,7.0,11.0,17,0.00,,---,0.00,VWS V14.01,2013-04-23 08:35:00,
2013-04-23 01:40:00,64.7,18.9,29.72,SW,215,2.0,7.0,17,0.00,,---,0.00,VWS V14.01,2013-04-23 08:40:00,
2013-04-23 01:45:00,64.0,18.3,29.72,SSW,211,0.0,2.0,17,0.00,,---,0.00,VWS V14.01,2013-04-23 08:45:00,
2013-04-23 01:50:00,63.4,17.9,29.72,SSW,211,0.0,0.0,17,0.00,,---,0.00,VWS V14.01,2013-04-23 08:50:00,
2013-04-23 01:55:00,62.7,18.6,29.72,SSW,211,0.0,1.0,18,0.00,,---,0.00,VWS V14.01,2013-04-23 08:55:00,
2013-04-23 02:00:00,61.5,17.6,29.72,SSW,205,0.0,2.0,18,0.00,,---,0.00,VWS V14.01,2013-04-23 09:00:00,
2013-04-23 02:05:00,59.0,16.8,29.72,SSE,166,0.0,0.0,19,0.00,,---,0.00,VWS V14.01,2013-04-23 09:05:00,
2013-04-23 02:10:00,58.5,16.4,29.72,SSE,148,0.0,0.0,19,0.00,,---,0.00,VWS V14.01,2013-04-23 09:10:00,
2013-04-23 02:15:00,59.0,18.0,29.72,WSW,243,0.0,2.0,20,0.00,,---,0.00,VWS V14.01,2013-04-23 09:15:00,
2013-04-23 02:20:00,60.1,17.7,29.72,WSW,242,0.0,0.0,19,0.00,,---,0.00,VWS V14.01,2013-04-23 09:20:00,
2013-04-23 02:25:00,60.5,18.1,29.72,WSW,242,0.0,0.0,19,0.00,,---,0.00,VWS V14.01,2013-04-23 09:25:00,
2013-04-23 02:30:00,60.4,18.0,29.72,WSW,242,0.0,3.0,19,0.00,,---,0.00,VWS V14.01,2013-04-23 09:30:00,
2013-04-23 02:35:00,59.0,18.0,29.72,WSW,246,0.0,0.0,20,0.00,,---,0.00,VWS V14.01,2013-04-23 09:35:00,
2013-04-23 02:40:00,57.9,17.1,29.72,WSW,245,0.0,0.0,20,0.00,,---,0.00,VWS V14.01,2013-04-23 09:40:00,
2013-04-23 02:45:00,56.6,17.1,29.72,WSW,244,0.0,0.0,21,0.00,,---,0.00,VWS V14.01,2013-04-23 09:45:00,
2013-04-23 02:50:00,56.0,16.6,29.73,WSW,244,0.0,0.0,21,0.00,,---,0.00,VWS V14.01,2013-04-23 09:50:00,
2013-04-23 02:55:00,56.5,18.1,29.72,WSW,244,0.0,0.0,22,0.00,,---,0.00,VWS V14.01,2013-04-23 09:55:00,
2013-04-23 03:00:00,57.7,19.1,29.72,WSW,244,0.0,3.0,22,0.00,,---,0.00,VWS V14.01,2013-04-23 10:00:00,
2013-04-23 03:05:00,59.0,19.1,29.72,WSW,240,0.0,0.0,21,0.00,,---,0.00,VWS V14.01,2013-04-23 10:05:00,
2013-04-23 03:10:00,59.4,18.3,29.72,SW,218,0.0,0.0,20,0.00,,---,0.00,VWS V14.01,2013-04-23 10:10:00,
2013-04-23 03:15:00,59.2,18.2,29.72,SW,217,0.0,1.0,20,0.00,,---,0.00,VWS V14.01,2013-04-23 10:15:00,
2013-04-23 03:20:00,57.9,18.2,29.72,SW,214,0.0,0.0,21,0.00,,---,0.00,VWS V14.01,2013-04-23 10:20:00,
2013-04-23 03:25:00,56.3,16.9,29.72,SSW,205,0.0,0.0,21,0.00,,---,0.00,VWS V14.01,2013-04-23 10:25:00,
2013-04-23 03:30:00,55.7,17.5,29.72,SSW,205,0.0,0.0,22,0.00,,---,0.00,VWS V14.01,2013-04-23 10:30:00,
2013-04-23 03:35:00,55.9,17.6,29.72,SSW,205,0.0,0.0,22,0.00,,---,0.00,VWS V14.01,2013-04-23 10:35:00,
2013-04-23 03:40:00,55.3,17.1,29.72,SSW,205,0.0,0.0,22,0.00,,---,0.00,VWS V14.01,2013-04-23 10:40:00,
2013-04-23 03:45:00,54.0,17.1,29.72,SSW,205,0.0,0.0,23,0.00,,---,0.00,VWS V14.01,2013-04-23 10:45:00,
2013-04-23 03:50:00,52.8,17.0,29.71,SSW,205,0.0,0.0,24,0.00,,---,0.00,VWS V14.01,2013-04-23 10:50:00,
2013-04-23 03:55:00,51.9,16.3,29.71,SSW,205,0.0,0.0,24,0.00,,---,0.00,VWS V14.01,2013-04-23 10:55:00,
2013-04-23 04:00:00,51.5,16.9,29.71,SSE,165,0.0,0.0,25,0.00,,---,0.00,VWS V14.01,2013-04-23 11:00:00,
2013-04-23 04:05:00,51.8,17.1,29.71,SSE,165,0.0,0.0,25,0.00,,---,0.00,VWS V14.01,2013-04-23 11:05:00,
2013-04-23 04:10:00,52.2,17.5,29.71,SSE,165,0.0,0.0,25,0.00,,---,0.00,VWS V14.01,2013-04-23 11:10:00,
2013-04-23 04:15:00,52.1,17.4,29.71,SSE,164,0.0,0.0,25,0.00,,---,0.00,VWS V14.01,2013-04-23 11:15:00,
2013-04-23 04:20:00,53.3,17.5,29.71,SSE,167,0.0,0.0,24,0.00,,---,0.00,VWS V14.01,2013-04-23 11:20:00,
2013-04-23 04:25:00,54.5,17.5,29.71,SSE,167,0.0,0.0,23,0.00,,---,0.00,VWS V14.01,2013-04-23 11:25:00,
2013-04-23 04:30:00,54.1,17.1,29.71,SE,142,0.0,0.0,23,0.00,,---,0.00,VWS V14.01,2013-04-23 11:30:00,
2013-04-23 04:35:00,53.1,17.3,29.71,SE,136,0.0,3.0,24,0.00,,---,0.00,VWS V14.01,2013-04-23 11:35:00,
2013-04-23 04:40:00,52.3,17.5,29.71,East,101,5.0,5.0,25,0.00,,---,0.00,VWS V14.01,2013-04-23 11:40:00,
2013-04-23 04:45:00,52.1,17.4,29.71,East,97,0.0,5.0,25,0.00,,---,0.00,VWS V14.01,2013-04-23 11:45:00,
2013-04-23 04:50:00,53.0,18.1,29.71,East,96,0.0,0.0,25,0.00,,---,0.00,VWS V14.01,2013-04-23 11:50:00,
2013-04-23 04:55:00,53.5,17.6,29.72,East,99,0.0,0.0,24,0.00,,---,0.00,VWS V14.01,2013-04-23 11:55:00,
2013-04-23 05:00:00,53.9,18.0,29.71,ESE,106,0.0,3.0,24,0.00,,---,0.00,VWS V14.01,2013-04-23 12:00:00,
2013-04-23 05:05:00,53.3,17.5,29.71,ESE,107,0.0,0.0,24,0.00,,---,0.00,VWS V14.01,2013-04-23 12:05:00,
2013-04-23 05:10:00,52.2,17.5,29.71,ESE,107,0.0,0.0,25,0.00,,---,0.00,VWS V14.01,2013-04-23 12:10:00,
2013-04-23 05:15:00,51.8,17.1,29.71,ESE,115,0.0,0.0,25,0.00,,---,0.00,VWS V14.01,2013-04-23 12:15:00,
2013-04-23 05:20:00,53.2,18.3,29.71,SE,126,1.0,2.0,25,0.00,,---,0.00,VWS V14.01,2013-04-23 12:20:00,
2013-04-23 05:25:00,55.4,18.2,29.71,ESE,123,4.0,6.0,23,0.00,,---,0.00,VWS V14.01,2013-04-23 12:25:00,
2013-04-23 05:30:00,57.2,18.7,29.71,SSE,148,2.0,7.0,22,0.00,,---,0.00,VWS V14.01,2013-04-23 12:30:00,
2013-04-23 05:35:00,58.2,19.6,29.71,SE,140,0.0,0.0,22,0.00,,---,0.00,VWS V14.01,2013-04-23 12:35:00,
2013-04-23 05:40:00,59.0,19.1,29.71,SSE,153,3.0,6.0,21,0.00,,---,0.00,VWS V14.01,2013-04-23 12:40:00,
2013-04-23 05:45:00,59.6,19.6,29.71,SE,142,1.0,3.0,21,0.00,,---,0.00,VWS V14.01,2013-04-23 12:45:00,
2013-04-23 05:50:00,59.3,19.4,29.72,SE,142,2.0,5.0,21,0.00,,---,0.00,VWS V14.01,2013-04-23 12:50:00,
2013-04-23 05:55:00,59.1,20.3,29.72,SE,133,1.0,6.0,22,0.00,,---,0.00,VWS V14.01,2013-04-23 12:55:00,
2013-04-23 06:00:00,59.9,19.9,29.72,SSE,167,2.0,8.0,21,0.00,,---,0.00,VWS V14.01,2013-04-23 13:00:00,
2013-04-23 06:05:00,60.7,20.6,29.72,ESE,122,6.0,7.0,21,0.00,,---,0.00,VWS V14.01,2013-04-23 13:05:00,
2013-04-23 06:10:00,60.6,20.5,29.72,SE,136,3.0,9.0,21,0.00,,---,0.00,VWS V14.01,2013-04-23 13:10:00,
2013-04-23 06:15:00,60.4,20.3,29.72,ESE,113,6.0,10.0,21,0.00,,---,0.00,VWS V14.01,2013-04-23 13:15:00,
2013-04-23 06:20:00,60.2,21.2,29.72,SE,128,4.0,9.0,22,0.00,,---,0.00,VWS V14.01,2013-04-23 13:20:00,
2013-04-23 06:25:00,60.7,21.7,29.72,SE,127,2.0,7.0,22,0.00,,---,0.00,VWS V14.01,2013-04-23 13:25:00,
2013-04-23 06:30:00,61.4,22.2,29.72,ESE,123,7.0,8.0,22,0.00,,---,0.00,VWS V14.01,2013-04-23 13:30:00,
2013-04-23 06:35:00,61.7,21.4,29.73,SE,128,9.0,9.0,21,0.00,,---,0.00,VWS V14.01,2013-04-23 13:35:00,
2013-04-23 06:40:00,62.0,21.6,29.73,SSE,149,0.0,6.0,21,0.00,,---,0.00,VWS V14.01,2013-04-23 13:40:00,
2013-04-23 06:45:00,62.5,22.1,29.73,SE,140,5.0,9.0,21,0.00,,---,0.00,VWS V14.01,2013-04-23 13:45:00,
2013-04-23 06:50:00,63.0,22.5,29.74,SSE,147,5.0,8.0,21,0.00,,---,0.00,VWS V14.01,2013-04-23 13:50:00,
2013-04-23 06:55:00,63.5,22.9,29.74,SE,144,6.0,10.0,21,0.00,,---,0.00,VWS V14.01,2013-04-23 13:55:00,
2013-04-23 07:00:00,63.6,23.0,29.74,SE,124,5.0,10.0,21,0.00,,---,0.00,VWS V14.01,2013-04-23 14:00:00,
2013-04-23 07:05:00,63.9,23.2,29.74,SE,144,4.0,9.0,21,0.00,,---,0.00,VWS V14.01,2013-04-23 14:05:00,
2013-04-23 07:10:00,64.3,22.4,29.74,SE,125,7.0,10.0,20,0.00,,---,0.00,VWS V14.01,2013-04-23 14:10:00,
2013-04-23 07:15:00,64.6,22.6,29.74,SE,142,3.0,7.0,20,0.00,,---,0.00,VWS V14.01,2013-04-23 14:15:00,
2013-04-23 07:20:00,65.1,23.1,29.74,SE,145,4.0,8.0,20,0.00,,---,0.00,VWS V14.01,2013-04-23 14:20:00,
2013-04-23 07:25:00,65.5,23.4,29.75,SSE,164,3.0,8.0,20,0.00,,---,0.00,VWS V14.01,2013-04-23 14:25:00,
2013-04-23 07:30:00,66.1,22.7,29.74,SSE,167,6.0,7.0,19,0.00,,---,0.00,VWS V14.01,2013-04-23 14:30:00,
2013-04-23 07:35:00,66.5,23.0,29.74,South,173,6.0,10.0,19,0.00,,---,0.00,VWS V14.01,2013-04-23 14:35:00,
2013-04-23 07:40:00,66.7,23.2,29.74,SSW,202,3.0,7.0,19,0.00,,---,0.00,VWS V14.01,2013-04-23 14:40:00,
2013-04-23 07:45:00,66.9,23.3,29.74,SSW,195,4.0,11.0,19,0.00,,---,0.00,VWS V14.01,2013-04-23 14:45:00,
2013-04-23 07:49:00,67.1,23.5,29.74,SW,218,4.0,4.0,19,0.00,,---,0.00,VWS V14.01,2013-04-23 14:49:00,
2013-04-23 07:50:00,67.1,23.5,29.74,SW,218,4.0,4.0,19,0.00,,---,0.00,VWS V14.01,2013-04-23 14:50:00,
2013-04-23 07:54:00,67.6,23.9,29.74,SSW,200,6.0,7.0,19,0.00,,---,0.00,VWS V14.01,2013-04-23 14:54:00,
2013-04-23 07:55:00,67.5,23.8,29.75,SSW,192,3.0,9.0,19,0.00,,---,0.00,VWS V14.01,2013-04-23 14:55:00,
2013-04-23 07:59:00,67.9,22.9,29.75,SSW,198,6.0,6.0,18,0.00,,---,0.00,VWS V14.01,2013-04-23 14:59:00,
2013-04-23 08:00:00,67.9,22.9,29.74,SSW,213,2.0,10.0,18,0.00,,---,0.00,VWS V14.01,2013-04-23 15:00:00,
2013-04-23 08:04:00,68.2,23.1,29.74,SSW,200,2.0,4.0,18,0.00,,---,0.00,VWS V14.01,2013-04-23 15:04:00,
2013-04-23 08:05:00,68.2,23.1,29.74,SSW,201,4.0,10.0,18,0.00,,---,0.00,VWS V14.01,2013-04-23 15:05:00,
2013-04-23 08:09:00,68.6,23.4,29.74,SW,217,3.0,6.0,18,0.00,,---,0.00,VWS V14.01,2013-04-23 15:09:00,
2013-04-23 08:10:00,68.6,24.7,29.74,SSW,207,5.0,7.0,19,0.00,,---,0.00,VWS V14.01,2013-04-23 15:10:00,
2013-04-23 08:14:00,68.8,23.6,29.74,SW,217,11.0,11.0,18,0.00,,---,0.00,VWS V14.01,2013-04-23 15:14:00,
2013-04-23 08:15:00,68.9,23.7,29.74,WSW,240,10.0,13.0,18,0.00,,---,0.00,VWS V14.01,2013-04-23 15:15:00,
2013-04-23 08:19:00,68.9,25.0,29.74,SSW,196,3.0,5.0,19,0.00,,---,0.00,VWS V14.01,2013-04-23 15:19:00,
2013-04-23 08:20:00,68.8,23.6,29.74,SSW,209,1.0,11.0,18,0.00,,---,0.00,VWS V14.01,2013-04-23 15:20:00,
2013-04-23 08:24:00,69.8,24.4,29.74,SW,221,10.0,10.0,18,0.00,,---,0.00,VWS V14.01,2013-04-23 15:24:00,
2013-04-23 08:25:00,69.8,24.4,29.74,SSW,205,7.0,9.0,18,0.00,,---,0.00,VWS V14.01,2013-04-23 15:25:00,
2013-04-23 08:29:00,69.4,24.1,29.74,WSW,241,5.0,8.0,18,0.00,,---,0.00,VWS V14.01,2013-04-23 15:29:00,
2013-04-23 08:30:00,69.5,24.2,29.74,SW,229,4.0,12.0,18,0.00,,---,0.00,VWS V14.01,2013-04-23 15:30:00,
2013-04-23 08:34:00,69.3,24.0,29.74,SW,221,3.0,5.0,18,0.00,,---,0.00,VWS V14.01,2013-04-23 15:34:00,
2013-04-23 08:35:00,69.3,24.0,29.74,SW,228,5.0,8.0,18,0.00,,---,0.00,VWS V14.01,2013-04-23 15:35:00,
2013-04-23 08:39:00,69.8,24.4,29.74,SSE,167,3.0,9.0,18,0.00,,---,0.00,VWS V14.01,2013-04-23 15:39:00,
2013-04-23 08:40:00,69.8,24.4,29.74,South,173,5.0,10.0,18,0.00,,---,0.00,VWS V14.01,2013-04-23 15:40:00,
2013-04-23 08:44:00,70.0,24.6,29.74,SW,215,3.0,5.0,18,0.00,,---,0.00,VWS V14.01,2013-04-23 15:44:00,
2013-04-23 08:45:00,69.9,24.5,29.75,South,175,2.0,9.0,18,0.00,,---,0.00,VWS V14.01,2013-04-23 15:45:00,
2013-04-23 08:49:00,70.0,24.6,29.75,West,267,5.0,6.0,18,0.00,,---,0.00,VWS V14.01,2013-04-23 15:49:00,
2013-04-23 08:50:00,70.1,24.7,29.74,WSW,243,0.0,10.0,18,0.00,,---,0.00,VWS V14.01,2013-04-23 15:50:00,
2013-04-23 08:54:00,70.2,24.7,29.75,SSW,199,4.0,6.0,18,0.00,,---,0.00,VWS V14.01,2013-04-23 15:54:00,
2013-04-23 08:55:00,70.1,24.7,29.74,SSW,192,4.0,6.0,18,0.00,,---,0.00,VWS V14.01,2013-04-23 15:55:00,
2013-04-23 08:58:00,70.8,25.2,29.74,SW,223,5.0,5.0,18,0.00,,---,0.00,VWS V14.01,2013-04-23 15:58:00,
2013-04-23 09:00:00,70.7,25.1,29.74,SSW,199,3.0,10.0,18,0.00,,---,0.00,VWS V14.01,2013-04-23 16:00:00,
2013-04-23 09:03:00,71.3,25.6,29.74,WSW,242,5.0,5.0,18,0.00,,---,0.00,VWS V14.01,2013-04-23 16:03:00,
2013-04-23 09:05:00,71.3,25.6,29.74,SW,233,3.0,9.0,18,0.00,,---,0.00,VWS V14.01,2013-04-23 16:05:00,
2013-04-23 09:08:00,71.6,25.9,29.74,SW,219,8.0,10.0,18,0.00,,---,0.00,VWS V14.01,2013-04-23 16:08:00,
2013-04-23 09:10:00,71.6,24.5,29.74,South,186,10.0,10.0,17,0.00,,---,0.00,VWS V14.01,2013-04-23 16:10:00,
2013-04-23 09:13:00,72.0,26.2,29.74,WSW,246,3.0,5.0,18,0.00,,---,0.00,VWS V14.01,2013-04-23 16:13:00,
2013-04-23 09:15:00,71.8,26.0,29.74,WSW,244,5.0,10.0,18,0.00,,---,0.00,VWS V14.01,2013-04-23 16:15:00,
2013-04-23 09:18:00,72.2,25.0,29.74,WSW,258,5.0,8.0,17,0.00,,---,0.00,VWS V14.01,2013-04-23 16:18:00,
2013-04-23 09:20:00,72.2,25.0,29.74,West,261,8.0,11.0,17,0.00,,---,0.00,VWS V14.01,2013-04-23 16:20:00,
2013-04-23 09:23:00,72.8,25.5,29.73,WSW,254,9.0,11.0,17,0.00,,---,0.00,VWS V14.01,2013-04-23 16:23:00,
2013-04-23 09:25:00,72.8,25.5,29.74,West,279,9.0,17.0,17,0.00,,---,0.00,VWS V14.01,2013-04-23 16:25:00,
2013-04-23 09:28:00,72.8,25.5,29.73,South,191,6.0,11.0,17,0.00,,---,0.00,VWS V14.01,2013-04-23 16:28:00,
2013-04-23 09:30:00,72.8,25.5,29.73,South,187,11.0,15.0,17,0.00,,---,0.00,VWS V14.01,2013-04-23 16:30:00,
2013-04-23 09:33:00,72.7,25.4,29.73,WSW,238,4.0,6.0,17,0.00,,---,0.00,VWS V14.01,2013-04-23 16:33:00,
2013-04-23 09:35:00,72.8,25.5,29.73,WSW,240,1.0,12.0,17,0.00,,---,0.00,VWS V14.01,2013-04-23 16:35:00,
2013-04-23 09:38:00,73.2,25.8,29.73,SSW,206,6.0,6.0,17,0.00,,---,0.00,VWS V14.01,2013-04-23 16:38:00,
2013-04-23 09:40:00,73.0,25.6,29.73,SSW,213,2.0,7.0,17,0.00,,---,0.00,VWS V14.01,2013-04-23 16:40:00,
2013-04-23 09:43:00,73.6,24.7,29.73,West,260,9.0,10.0,16,0.00,,---,0.00,VWS V14.01,2013-04-23 16:43:00,
2013-04-23 09:45:00,73.6,24.7,29.73,WSW,251,10.0,14.0,16,0.00,,---,0.00,VWS V14.01,2013-04-23 16:45:00,
2013-04-23 09:48:00,74.1,25.1,29.73,SW,227,7.0,12.0,16,0.00,,---,0.00,VWS V14.01,2013-04-23 16:48:00,
2013-04-23 09:50:00,74.1,25.1,29.73,SW,217,7.0,14.0,16,0.00,,---,0.00,VWS V14.01,2013-04-23 16:50:00,
2013-04-23 09:53:00,74.1,25.1,29.73,WSW,248,4.0,6.0,16,0.00,,---,0.00,VWS V14.01,2013-04-23 16:53:00,
2013-04-23 09:55:00,74.1,25.1,29.73,SW,221,2.0,13.0,16,0.00,,---,0.00,VWS V14.01,2013-04-23 16:55:00,
2013-04-23 09:58:00,74.8,25.6,29.73,SSW,199,10.0,10.0,16,0.00,,---,0.00,VWS V14.01,2013-04-23 16:58:00,
2013-04-23 10:00:00,74.7,25.6,29.73,SW,219,4.0,15.0,16,0.00,,---,0.00,VWS V14.01,2013-04-23 17:00:00,
2013-04-23 10:03:00,75.1,25.9,29.73,SW,229,6.0,12.0,16,0.00,,---,0.00,VWS V14.01,2013-04-23 17:03:00,
2013-04-23 10:05:00,75.1,25.9,29.73,SSW,200,12.0,16.0,16,0.00,,---,0.00,VWS V14.01,2013-04-23 17:05:00,
2013-04-23 10:08:00,75.2,24.4,29.73,SSW,201,6.0,7.0,15,0.00,,---,0.00,VWS V14.01,2013-04-23 17:08:00,
2013-04-23 10:10:00,75.3,24.5,29.73,South,183,4.0,13.0,15,0.00,,---,0.00,VWS V14.01,2013-04-23 17:10:00,
2013-04-23 10:13:00,75.4,24.6,29.73,SSW,194,14.0,16.0,15,0.00,,---,0.00,VWS V14.01,2013-04-23 17:13:00,
2013-04-23 10:15:00,75.3,24.5,29.73,SSW,192,10.0,14.0,15,0.00,,---,0.00,VWS V14.01,2013-04-23 17:15:00,
2013-04-23 10:18:00,76.7,24.0,29.73,WSW,254,7.0,12.0,14,0.00,,---,0.00,VWS V14.01,2013-04-23 17:18:00,
2013-04-23 10:20:00,76.8,24.0,29.73,WSW,237,10.0,21.0,14,0.00,,---,0.00,VWS V14.01,2013-04-23 17:20:00,
2013-04-23 10:23:00,76.4,23.7,29.73,WSW,253,2.0,2.0,14,0.00,,---,0.00,VWS V14.01,2013-04-23 17:23:00,
2013-04-23 10:25:00,76.5,23.8,29.73,WSW,250,0.0,17.0,14,0.00,,---,0.00,VWS V14.01,2013-04-23 17:25:00,
2013-04-23 10:28:00,76.5,25.5,29.73,SW,221,14.0,14.0,15,0.00,,---,0.00,VWS V14.01,2013-04-23 17:28:00,
2013-04-23 10:30:00,76.5,25.5,29.72,SW,230,9.0,15.0,15,0.00,,---,0.00,VWS V14.01,2013-04-23 17:30:00,
2013-04-23 10:33:00,76.5,25.5,29.73,SSW,209,6.0,9.0,15,0.00,,---,0.00,VWS V14.01,2013-04-23 17:33:00,
2013-04-23 10:35:00,76.6,25.5,29.73,South,176,6.0,15.0,15,0.00,,---,0.00,VWS V14.01,2013-04-23 17:35:00,
2013-04-23 10:38:00,76.7,25.6,29.72,SW,221,10.0,12.0,15,0.00,,---,0.00,VWS V14.01,2013-04-23 17:38:00,
2013-04-23 10:40:00,76.7,25.6,29.73,SSW,213,5.0,12.0,15,0.00,,---,0.00,VWS V14.01,2013-04-23 17:40:00,
2013-04-23 10:43:00,77.3,24.4,29.73,WSW,241,6.0,12.0,14,0.00,,---,0.00,VWS V14.01,2013-04-23 17:43:00,
2013-04-23 10:45:00,77.3,24.4,29.73,SW,223,6.0,16.0,14,0.00,,---,0.00,VWS V14.01,2013-04-23 17:45:00,
2013-04-23 10:48:00,77.1,24.3,29.72,WSW,251,6.0,13.0,14,0.00,,---,0.00,VWS V14.01,2013-04-23 17:48:00,
2013-04-23 10:50:00,77.0,24.2,29.72,SW,232,7.0,12.0,14,0.00,,---,0.00,VWS V14.01,2013-04-23 17:50:00,
2013-04-23 10:53:00,77.1,24.3,29.72,West,273,9.0,11.0,14,0.00,,---,0.00,VWS V14.01,2013-04-23 17:53:00,
2013-04-23 10:55:00,77.1,24.3,29.72,West,281,10.0,13.0,14,0.00,,---,0.00,VWS V14.01,2013-04-23 17:55:00,
2013-04-23 10:58:00,77.1,24.3,29.72,West,262,4.0,9.0,14,0.00,,---,0.00,VWS V14.01,2013-04-23 17:58:00,
2013-04-23 11:00:00,77.0,24.2,29.72,West,266,9.0,11.0,14,0.00,,---,0.00,VWS V14.01,2013-04-23 18:00:00,
2013-04-23 11:03:00,78.0,25.0,29.72,WNW,286,10.0,11.0,14,0.00,,---,0.00,VWS V14.01,2013-04-23 18:03:00,
2013-04-23 11:05:00,77.9,24.9,29.72,NW,314,9.0,15.0,14,0.00,,---,0.00,VWS V14.01,2013-04-23 18:05:00,
2013-04-23 11:08:00,78.0,25.0,29.72,West,280,11.0,14.0,14,0.00,,---,0.00,VWS V14.01,2013-04-23 18:08:00,
2013-04-23 11:10:00,77.9,24.9,29.72,WNW,286,13.0,18.0,14,0.00,,---,0.00,VWS V14.01,2013-04-23 18:10:00,
2013-04-23 11:13:00,78.3,23.5,29.72,West,279,10.0,13.0,13,0.00,,---,0.00,VWS V14.01,2013-04-23 18:13:00,
2013-04-23 11:15:00,78.4,23.5,29.72,West,276,13.0,25.0,13,0.00,,---,0.00,VWS V14.01,2013-04-23 18:15:00,
2013-04-23 11:18:00,78.1,23.3,29.72,WNW,293,6.0,11.0,13,0.00,,---,0.00,VWS V14.01,2013-04-23 18:18:00,
2013-04-23 11:20:00,78.1,23.3,29.72,WNW,292,11.0,15.0,13,0.00,,---,0.00,VWS V14.01,2013-04-23 18:20:00,
2013-04-23 11:23:00,77.5,24.6,29.72,West,268,8.0,8.0,14,0.00,,---,0.00,VWS V14.01,2013-04-23 18:23:00,
2013-04-23 11:25:00,77.6,24.7,29.72,WNW,294,2.0,13.0,14,0.00,,---,0.00,VWS V14.01,2013-04-23 18:25:00,
2013-04-23 11:28:00,77.7,24.8,29.71,West,272,11.0,12.0,14,0.00,,---,0.00,VWS V14.01,2013-04-23 18:28:00,
2013-04-23 11:30:00,77.7,24.8,29.72,SW,236,11.0,17.0,14,0.00,,---,0.00,VWS V14.01,2013-04-23 18:30:00,
2013-04-23 11:33:00,78.0,25.0,29.71,WNW,296,17.0,20.0,14,0.00,,---,0.00,VWS V14.01,2013-04-23 18:33:00,
2013-04-23 11:35:00,77.9,24.9,29.71,WNW,286,17.0,17.0,14,0.00,,---,0.00,VWS V14.01,2013-04-23 18:35:00,
2013-04-23 11:38:00,78.7,23.8,29.71,NW,304,15.0,18.0,13,0.00,,---,0.00,VWS V14.01,2013-04-23 18:38:00,
2013-04-23 11:40:00,78.7,23.8,29.71,WNW,289,16.0,22.0,13,0.00,,---,0.00,VWS V14.01,2013-04-23 18:40:00,
2013-04-23 11:43:00,78.5,23.6,29.71,WNW,286,13.0,13.0,13,0.00,,---,0.00,VWS V14.01,2013-04-23 18:43:00,
2013-04-23 11:45:00,78.5,23.6,29.71,West,279,7.0,18.0,13,0.00,,---,0.00,VWS V14.01,2013-04-23 18:45:00,
2013-04-23 11:50:00,78.7,21.9,29.71,WNW,292,8.0,13.0,12,0.00,,---,0.00,VWS V14.01,2013-04-23 18:50:00,
2013-04-23 11:55:00,78.7,21.9,29.71,NW,315,11.0,16.0,12,0.00,,---,0.00,VWS V14.01,2013-04-23 18:55:00,
2013-04-23 12:00:00,78.6,21.8,29.70,NNW,338,7.0,16.0,12,0.00,,---,0.00,VWS V14.01,2013-04-23 19:00:00,
2013-04-23 12:05:00,79.4,22.4,29.70,NW,315,10.0,35.0,12,0.00,,---,0.00,VWS V14.01,2013-04-23 19:05:00,
2013-04-23 12:10:00,79.7,22.6,29.70,WNW,292,16.0,24.0,12,0.00,,---,0.00,VWS V14.01,2013-04-23 19:10:00,
2013-04-23 12:15:00,79.0,22.1,29.70,West,270,14.0,23.0,12,0.00,,---,0.00,VWS V14.01,2013-04-23 19:15:00,
2013-04-23 12:20:00,79.4,22.4,29.70,West,270,16.0,23.0,12,0.00,,---,0.00,VWS V14.01,2013-04-23 19:20:00,
2013-04-23 12:25:00,79.6,22.6,29.70,West,270,14.0,20.0,12,0.00,,---,0.00,VWS V14.01,2013-04-23 19:25:00,
2013-04-23 12:30:00,79.6,20.5,29.70,West,270,11.0,20.0,11,0.00,,---,0.00,VWS V14.01,2013-04-23 19:30:00,
2013-04-23 12:35:00,79.6,20.5,29.70,West,270,14.0,22.0,11,0.00,,---,0.00,VWS V14.01,2013-04-23 19:35:00,
2013-04-23 12:40:00,79.6,20.5,29.70,WNW,292,15.0,22.0,11,0.00,,---,0.00,VWS V14.01,2013-04-23 19:40:00,
2013-04-23 12:45:00,79.6,20.5,29.69,WNW,292,14.0,20.0,11,0.00,,---,0.00,VWS V14.01,2013-04-23 19:45:00,
2013-04-23 12:50:00,80.0,20.8,29.69,WNW,292,10.0,17.0,11,0.00,,---,0.00,VWS V14.01,2013-04-23 19:50:00,
2013-04-23 12:55:00,80.3,21.1,29.69,WNW,292,15.0,26.0,11,0.00,,---,0.00,VWS V14.01,2013-04-23 19:55:00,
2013-04-23 13:00:00,81.4,19.7,29.69,WNW,292,14.0,35.0,10,0.00,,---,0.00,VWS V14.01,2013-04-23 20:00:00,
2013-04-23 13:05:00,81.1,19.4,29.69,WNW,292,14.0,24.0,10,0.00,,---,0.00,VWS V14.01,2013-04-23 20:05:00,
2013-04-23 13:10:00,80.4,18.9,29.69,WNW,292,16.0,23.0,10,0.00,,---,0.00,VWS V14.01,2013-04-23 20:10:00,
2013-04-23 13:15:00,80.9,19.3,29.69,WNW,292,16.0,23.0,10,0.00,,---,0.00,VWS V14.01,2013-04-23 20:15:00,
2013-04-23 13:20:00,81.0,19.4,29.69,WNW,292,15.0,24.0,10,0.00,,---,0.00,VWS V14.01,2013-04-23 20:20:00,
2013-04-23 13:25:00,82.0,22.4,29.68,WNW,292,16.0,24.0,11,0.00,,---,0.00,VWS V14.01,2013-04-23 20:25:00,
2013-04-23 13:30:00,81.9,22.3,29.68,WNW,292,16.0,25.0,11,0.00,,---,0.00,VWS V14.01,2013-04-23 20:30:00,
2013-04-23 13:35:00,81.6,22.0,29.68,WNW,292,14.0,21.0,11,0.00,,---,0.00,VWS V14.01,2013-04-23 20:35:00,
2013-04-23 13:40:00,81.1,21.7,29.68,WNW,292,18.0,25.0,11,0.00,,---,0.00,VWS V14.01,2013-04-23 20:40:00,
2013-04-23 13:45:00,81.3,21.8,29.68,WNW,292,17.0,26.0,11,0.00,,---,0.00,VWS V14.01,2013-04-23 20:45:00,
2013-04-23 13:50:00,81.7,22.1,29.68,WNW,292,16.0,23.0,11,0.00,,---,0.00,VWS V14.01,2013-04-23 20:50:00,
2013-04-23 13:55:00,82.2,20.3,29.68,West,270,17.0,22.0,10,0.00,,---,0.00,VWS V14.01,2013-04-23 20:55:00,
2013-04-23 14:00:00,81.5,22.0,29.68,WNW,292,17.0,24.0,11,0.00,,---,0.00,VWS V14.01,2013-04-23 21:00:00,
2013-04-23 14:05:00,82.2,20.3,29.68,WNW,292,17.0,25.0,10,0.00,,---,0.00,VWS V14.01,2013-04-23 21:05:00,
2013-04-23 14:10:00,81.2,21.8,29.68,West,270,17.0,26.0,11,0.00,,---,0.00,VWS V14.01,2013-04-23 21:10:00,
2013-04-23 14:15:00,81.1,21.7,29.68,WNW,292,18.0,26.0,11,0.00,,---,0.00,VWS V14.01,2013-04-23 21:15:00,
2013-04-23 14:20:00,82.1,20.2,29.67,WNW,292,16.0,25.0,10,0.00,,---,0.00,VWS V14.01,2013-04-23 21:20:00,
2013-04-23 14:25:00,82.3,20.3,29.68,WNW,292,17.0,26.0,10,0.00,,---,0.00,VWS V14.01,2013-04-23 21:25:00,
2013-04-23 14:30:00,81.8,20.0,29.67,WNW,292,16.0,24.0,10,0.00,,---,0.00,VWS V14.01,2013-04-23 21:30:00,
2013-04-23 14:35:00,81.6,22.0,29.67,WNW,292,18.0,27.0,11,0.00,,---,0.00,VWS V14.01,2013-04-23 21:35:00,
2013-04-23 14:40:00,81.2,23.8,29.67,WNW,292,18.0,25.0,12,0.00,,---,0.00,VWS V14.01,2013-04-23 21:40:00,
2013-04-23 14:45:00,82.3,22.6,29.67,WNW,292,19.0,29.0,11,0.00,,---,0.00,VWS V14.01,2013-04-23 21:45:00,
2013-04-23 14:50:00,81.5,22.0,29.67,West,270,17.0,23.0,11,0.00,,---,0.00,VWS V14.01,2013-04-23 21:50:00,
2013-04-23 14:55:00,81.8,22.2,29.67,WNW,292,17.0,26.0,11,0.00,,---,0.00,VWS V14.01,2013-04-23 21:55:00,
2013-04-23 15:00:00,81.4,21.9,29.67,WNW,292,15.0,22.0,11,0.00,,---,0.00,VWS V14.01,2013-04-23 22:00:00,
2013-04-23 15:05:00,82.3,22.6,29.67,West,270,17.0,25.0,11,0.00,,---,0.00,VWS V14.01,2013-04-23 22:05:00,
2013-04-23 15:10:00,81.4,21.9,29.67,West,270,18.0,27.0,11,0.00,,---,0.00,VWS V14.01,2013-04-23 22:10:00,
2013-04-23 15:15:00,81.1,21.7,29.67,West,270,14.0,23.0,11,0.00,,---,0.00,VWS V14.01,2013-04-23 22:15:00,
2013-04-23 15:20:00,82.0,22.4,29.67,West,270,17.0,28.0,11,0.00,,---,0.00,VWS V14.01,2013-04-23 22:20:00,
2013-04-23 15:25:00,81.8,20.0,29.67,West,270,16.0,27.0,10,0.00,,---,0.00,VWS V14.01,2013-04-23 22:25:00,
2013-04-23 15:30:00,81.6,22.0,29.67,West,270,15.0,24.0,11,0.00,,---,0.00,VWS V14.01,2013-04-23 22:30:00,
2013-04-23 15:35:00,81.2,21.8,29.66,West,270,15.0,22.0,11,0.00,,---,0.00,VWS V14.01,2013-04-23 22:35:00,
2013-04-23 15:40:00,81.5,22.0,29.66,WNW,292,18.0,25.0,11,0.00,,---,0.00,VWS V14.01,2013-04-23 22:40:00,
2013-04-23 15:46:00,81.5,22.0,29.66,WNW,292,18.0,25.0,11,0.00,,---,0.00,VWS V14.01,2013-04-23 22:46:00,
2013-04-23 15:50:00,81.5,22.0,29.66,WNW,290,18.0,22.0,11,0.00,,---,0.00,VWS V14.01,2013-04-23 22:50:00,
2013-04-23 15:51:00,81.4,21.9,29.66,WNW,289,17.0,18.0,11,0.00,,---,0.00,VWS V14.01,2013-04-23 22:51:00,
2013-04-23 15:55:00,81.2,21.8,29.66,WNW,286,20.0,22.0,11,0.00,,---,0.00,VWS V14.01,2013-04-23 22:55:00,
2013-04-23 15:56:00,80.9,21.5,29.67,WNW,299,19.0,25.0,11,0.00,,---,0.00,VWS V14.01,2013-04-23 22:56:00,
2013-04-23 16:00:00,80.7,21.4,29.67,WNW,290,7.0,25.0,11,0.00,,---,0.00,VWS V14.01,2013-04-23 23:00:00,
2013-04-23 16:01:00,81.1,21.7,29.67,West,259,23.0,24.0,11,0.00,,---,0.00,VWS V14.01,2013-04-23 23:01:00,
2013-04-23 16:05:00,80.8,21.4,29.67,WSW,257,15.0,24.0,11,0.00,,---,0.00,VWS V14.01,2013-04-23 23:05:00,
2013-04-23 16:06:00,80.4,21.1,29.66,WSW,246,15.0,18.0,11,0.00,,---,0.00,VWS V14.01,2013-04-23 23:06:00,
2013-04-23 16:10:00,80.8,21.4,29.66,West,259,15.0,21.0,11,0.00,,---,0.00,VWS V14.01,2013-04-23 23:10:00,
2013-04-23 16:11:00,81.1,21.7,29.67,West,275,17.0,27.0,11,0.00,,---,0.00,VWS V14.01,2013-04-23 23:11:00,
2013-04-23 16:15:00,81.0,21.6,29.66,West,267,18.0,27.0,11,0.00,,---,0.00,VWS V14.01,2013-04-23 23:15:00,
2013-04-23 16:16:00,81.0,21.6,29.67,WNW,296,14.0,19.0,11,0.00,,---,0.00,VWS V14.01,2013-04-23 23:16:00,
2013-04-23 16:20:00,81.2,19.5,29.67,West,269,16.0,19.0,10,0.00,,---,0.00,VWS V14.01,2013-04-23 23:20:00,
2013-04-23 16:21:00,81.0,19.4,29.67,WNW,284,20.0,24.0,10,0.00,,---,0.00,VWS V14.01,2013-04-23 23:21:00,
2013-04-23 16:25:00,80.3,18.8,29.66,West,280,10.0,24.0,10,0.00,,---,0.00,VWS V14.01,2013-04-23 23:25:00,
2013-04-23 16:26:00,80.2,18.8,29.67,WNW,298,18.0,24.0,10,0.00,,---,0.00,VWS V14.01,2013-04-23 23:26:00,
2013-04-23 16:30:00,80.3,18.8,29.66,West,273,18.0,22.0,10,0.00,,---,0.00,VWS V14.01,2013-04-23 23:30:00,
2013-04-23 16:35:00,80.1,18.7,29.67,West,279,14.0,19.0,10,0.00,,---,0.00,VWS V14.01,2013-04-23 23:35:00,
2013-04-23 16:40:00,80.1,18.7,29.67,WNW,297,14.0,23.0,10,0.00,,---,0.00,VWS V14.01,2013-04-23 23:40:00,
2013-04-23 16:45:00,80.4,18.9,29.67,West,270,14.0,16.0,10,0.00,,---,0.00,VWS V14.01,2013-04-23 23:45:00,
2013-04-23 16:50:00,80.1,18.7,29.67,West,274,13.0,18.0,10,0.00,,---,0.00,VWS V14.01,2013-04-23 23:50:00,
2013-04-23 16:55:00,80.0,18.6,29.68,WNW,290,13.0,17.0,10,0.00,,---,0.00,VWS V14.01,2013-04-23 23:55:00,
2013-04-23 17:00:00,79.8,18.4,29.67,WNW,292,10.0,15.0,10,0.00,,---,0.00,VWS V14.01,2013-04-24 00:00:00,
2013-04-23 17:05:00,80.0,18.6,29.67,WNW,300,19.0,19.0,10,0.00,,---,0.00,VWS V14.01,2013-04-24 00:05:00,
2013-04-23 17:10:00,79.6,20.5,29.67,NW,306,10.0,19.0,11,0.00,,---,0.00,VWS V14.01,2013-04-24 00:10:00,
2013-04-23 17:15:00,79.1,20.1,29.67,West,274,6.0,13.0,11,0.00,,---,0.00,VWS V14.01,2013-04-24 00:15:00,
2013-04-23 17:20:00,79.2,20.2,29.67,West,274,15.0,16.0,11,0.00,,---,0.00,VWS V14.01,2013-04-24 00:20:00,
2013-04-23 17:25:00,78.8,19.9,29.67,WNW,289,16.0,18.0,11,0.00,,---,0.00,VWS V14.01,2013-04-24 00:25:00,
2013-04-23 17:30:00,79.1,20.1,29.67,West,281,15.0,16.0,11,0.00,,---,0.00,VWS V14.01,2013-04-24 00:30:00,
2013-04-23 17:35:00,79.1,20.1,29.67,WNW,290,14.0,17.0,11,0.00,,---,0.00,VWS V14.01,2013-04-24 00:35:00,
2013-04-23 17:40:00,78.9,20.0,29.67,NW,306,10.0,18.0,11,0.00,,---,0.00,VWS V14.01,2013-04-24 00:40:00,
2013-04-23 17:45:00,78.5,19.7,29.67,West,279,14.0,17.0,11,0.00,,---,0.00,VWS V14.01,2013-04-24 00:45:00,
2013-04-23 17:50:00,78.1,19.4,29.67,West,272,11.0,12.0,11,0.00,,---,0.00,VWS V14.01,2013-04-24 00:50:00,
2013-04-23 17:55:00,78.1,19.4,29.67,WNW,295,12.0,13.0,11,0.00,,---,0.00,VWS V14.01,2013-04-24 00:55:00,
2013-04-23 18:00:00,77.9,19.2,29.67,WNW,290,13.0,14.0,11,0.00,,---,0.00,VWS V14.01,2013-04-24 01:00:00,
2013-04-23 18:05:00,77.5,20.9,29.67,NW,304,11.0,14.0,12,0.00,,---,0.00,VWS V14.01,2013-04-24 01:05:00,
2013-04-23 18:10:00,77.3,20.8,29.67,WNW,288,10.0,17.0,12,0.00,,---,0.00,VWS V14.01,2013-04-24 01:10:00,
2013-04-23 18:15:00,77.0,20.5,29.68,West,280,13.0,13.0,12,0.00,,---,0.00,VWS V14.01,2013-04-24 01:15:00,
2013-04-23 18:20:00,76.7,20.3,29.68,NW,309,8.0,16.0,12,0.00,,---,0.00,VWS V14.01,2013-04-24 01:20:00,
2013-04-23 18:25:00,76.4,20.1,29.68,NW,309,7.0,13.0,12,0.00,,---,0.00,VWS V14.01,2013-04-24 01:25:00,
2013-04-23 18:30:00,76.1,19.9,29.68,NW,315,6.0,12.0,12,0.00,,---,0.00,VWS V14.01,2013-04-24 01:30:00,
2013-04-23 18:35:00,75.5,19.4,29.68,WNW,288,3.0,11.0,12,0.00,,---,0.00,VWS V14.01,2013-04-24 01:35:00,
2013-04-23 18:40:00,75.1,19.1,29.68,WNW,301,5.0,9.0,12,0.00,,---,0.00,VWS V14.01,2013-04-24 01:40:00,
2013-04-23 18:45:00,74.8,18.8,29.68,NW,323,4.0,7.0,12,0.00,,---,0.00,VWS V14.01,2013-04-24 01:45:00,
2013-04-23 18:50:00,74.4,18.5,29.69,NW,317,1.0,7.0,12,0.00,,---,0.00,VWS V14.01,2013-04-24 01:50:00,
2013-04-23 18:55:00,73.7,18.0,29.69,WNW,298,5.0,6.0,12,0.00,,---,0.00,VWS V14.01,2013-04-24 01:55:00,
2013-04-23 19:00:00,73.1,19.4,29.69,WNW,292,4.0,6.0,13,0.00,,---,0.00,VWS V14.01,2013-04-24 02:00:00,
2013-04-23 19:05:00,72.5,18.9,29.69,WNW,292,4.0,7.0,13,0.00,,---,0.00,VWS V14.01,2013-04-24 02:05:00,
2013-04-23 19:10:00,72.1,18.6,29.69,WNW,287,3.0,5.0,13,0.00,,---,0.00,VWS V14.01,2013-04-24 02:10:00,
2013-04-23 19:15:00,71.6,18.2,29.69,WNW,284,3.0,5.0,13,0.00,,---,0.00,VWS V14.01,2013-04-24 02:15:00,
2013-04-23 19:20:00,71.0,17.7,29.69,WNW,283,1.0,5.0,13,0.00,,---,0.00,VWS V14.01,2013-04-24 02:20:00,
2013-04-23 19:25:00,70.3,17.2,29.69,WNW,286,3.0,4.0,13,0.00,,---,0.00,VWS V14.01,2013-04-24 02:25:00,
2013-04-23 19:30:00,69.9,18.6,29.70,WNW,287,0.0,3.0,14,0.00,,---,0.00,VWS V14.01,2013-04-24 02:30:00,
2013-04-23 19:35:00,69.7,18.4,29.70,WNW,288,0.0,2.0,14,0.00,,---,0.00,VWS V14.01,2013-04-24 02:35:00,
2013-04-23 19:40:00,69.3,18.1,29.71,WNW,287,2.0,2.0,14,0.00,,---,0.00,VWS V14.01,2013-04-24 02:40:00,
2013-04-23 19:45:00,69.0,17.9,29.71,WNW,287,1.0,2.0,14,0.00,,---,0.00,VWS V14.01,2013-04-24 02:45:00,
2013-04-23 19:46:00,68.6,17.5,29.71,WNW,288,1.0,2.0,14,0.00,,---,0.00,VWS V14.01,2013-04-24 02:46:00,
2013-04-23 19:50:00,68.3,17.3,29.71,WNW,287,0.0,3.0,14,0.00,,---,0.00,VWS V14.01,2013-04-24 02:50:00,
2013-04-23 19:51:00,67.9,17.0,29.72,WNW,289,0.0,4.0,14,0.00,,---,0.00,VWS V14.01,2013-04-24 02:51:00,
2013-04-23 19:55:00,67.7,16.8,29.72,WNW,289,0.0,4.0,14,0.00,,---,0.00,VWS V14.01,2013-04-24 02:55:00,
2013-04-23 19:56:00,67.5,18.3,29.72,WNW,292,2.0,4.0,15,0.00,,---,0.00,VWS V14.01,2013-04-24 02:56:00,
2013-04-23 20:00:00,67.5,18.3,29.72,WNW,294,2.0,4.0,15,0.00,,---,0.00,VWS V14.01,2013-04-24 03:00:00,
2013-04-23 20:01:00,67.4,18.2,29.72,WNW,294,2.0,3.0,15,0.00,,---,0.00,VWS V14.01,2013-04-24 03:01:00,
2013-04-23 20:05:00,67.4,18.2,29.72,WNW,295,1.0,3.0,15,0.00,,---,0.00,VWS V14.01,2013-04-24 03:05:00,
2013-04-23 20:06:00,67.2,18.0,29.72,WNW,295,0.0,3.0,15,0.00,,---,0.00,VWS V14.01,2013-04-24 03:06:00,
2013-04-23 20:10:00,67.1,17.9,29.72,WNW,295,1.0,3.0,15,0.00,,---,0.00,VWS V14.01,2013-04-24 03:10:00,
2013-04-23 20:11:00,66.9,17.8,29.72,WNW,296,2.0,4.0,15,0.00,,---,0.00,VWS V14.01,2013-04-24 03:11:00,
2013-04-23 20:15:00,66.8,17.7,29.72,WNW,296,2.0,4.0,15,0.00,,---,0.00,VWS V14.01,2013-04-24 03:15:00,
2013-04-23 20:16:00,66.7,17.6,29.72,WNW,296,0.0,2.0,15,0.00,,---,0.00,VWS V14.01,2013-04-24 03:16:00,
2013-04-23 20:20:00,66.7,17.6,29.72,WNW,296,0.0,3.0,15,0.00,,---,0.00,VWS V14.01,2013-04-24 03:20:00,
2013-04-23 20:21:00,66.7,17.6,29.73,WNW,296,0.0,0.0,15,0.00,,---,0.00,VWS V14.01,2013-04-24 03:21:00,
2013-04-23 20:25:00,66.7,17.6,29.73,WNW,296,0.0,0.0,15,0.00,,---,0.00,VWS V14.01,2013-04-24 03:25:00,
2013-04-23 20:26:00,66.8,17.7,29.73,WNW,296,0.0,0.0,15,0.00,,---,0.00,VWS V14.01,2013-04-24 03:26:00,
2013-04-23 20:30:00,66.8,17.7,29.73,WNW,296,0.0,0.0,15,0.00,,---,0.00,VWS V14.01,2013-04-24 03:30:00,
2013-04-23 20:31:00,66.8,17.7,29.73,WNW,296,0.0,0.0,15,0.00,,---,0.00,VWS V14.01,2013-04-24 03:31:00,
2013-04-23 20:35:00,66.7,17.6,29.73,WNW,296,0.0,0.0,15,0.00,,---,0.00,VWS V14.01,2013-04-24 03:35:00,
2013-04-23 20:37:00,66.7,17.6,29.73,WNW,296,0.0,0.0,15,0.00,,---,0.00,VWS V14.01,2013-04-24 03:37:00,
2013-04-23 20:40:00,66.7,17.6,29.73,WNW,296,0.0,0.0,15,0.00,,---,0.00,VWS V14.01,2013-04-24 03:40:00,
2013-04-23 20:42:00,66.5,17.5,29.74,WNW,296,0.0,0.0,15,0.00,,---,0.00,VWS V14.01,2013-04-24 03:42:00,
2013-04-23 20:45:00,66.4,17.4,29.74,WNW,296,0.0,0.0,15,0.00,,---,0.00,VWS V14.01,2013-04-24 03:45:00,
2013-04-23 20:47:00,66.0,17.1,29.74,WNW,296,0.0,0.0,15,0.00,,---,0.00,VWS V14.01,2013-04-24 03:47:00,
2013-04-23 20:50:00,65.9,17.0,29.74,WNW,296,0.0,0.0,15,0.00,,---,0.00,VWS V14.01,2013-04-24 03:50:00,
2013-04-23 20:52:00,64.7,16.0,29.74,WNW,296,0.0,0.0,15,0.00,,---,0.00,VWS V14.01,2013-04-24 03:52:00,
2013-04-23 20:55:00,64.1,15.5,29.74,WNW,296,0.0,0.0,15,0.00,,---,0.00,VWS V14.01,2013-04-24 03:55:00,
2013-04-23 20:57:00,62.3,15.6,29.74,WNW,296,0.0,0.0,16,0.00,,---,0.00,VWS V14.01,2013-04-24 03:57:00,
2013-04-23 21:00:00,62.0,15.3,29.74,WNW,296,0.0,0.0,16,0.00,,---,0.00,VWS V14.01,2013-04-24 04:00:00,
2013-04-23 21:01:00,61.6,16.4,29.74,WNW,296,0.0,0.0,17,0.00,,---,0.00,VWS V14.01,2013-04-24 04:01:00,
2013-04-23 21:05:00,61.6,16.4,29.74,WNW,296,0.0,0.0,17,0.00,,---,0.00,VWS V14.01,2013-04-24 04:05:00,
2013-04-23 21:06:00,61.4,16.2,29.74,WNW,296,0.0,0.0,17,0.00,,---,0.00,VWS V14.01,2013-04-24 04:06:00,
2013-04-23 21:10:00,61.2,16.1,29.75,WNW,296,0.0,0.0,17,0.00,,---,0.00,VWS V14.01,2013-04-24 04:10:00,
2013-04-23 21:11:00,60.5,15.5,29.75,WNW,296,0.0,0.0,17,0.00,,---,0.00,VWS V14.01,2013-04-24 04:11:00,
2013-04-23 21:15:00,60.2,15.2,29.75,WNW,296,0.0,0.0,17,0.00,,---,0.00,VWS V14.01,2013-04-24 04:15:00,
2013-04-23 21:16:00,59.6,14.8,29.75,WNW,296,0.0,0.0,17,0.00,,---,0.00,VWS V14.01,2013-04-24 04:16:00,
2013-04-23 21:20:00,59.1,14.4,29.75,WNW,296,0.0,0.0,17,0.00,,---,0.00,VWS V14.01,2013-04-24 04:20:00,
2013-04-23 21:21:00,58.8,14.1,29.75,WNW,296,0.0,0.0,17,0.00,,---,0.00,VWS V14.01,2013-04-24 04:21:00,
2013-04-23 21:25:00,58.7,15.3,29.75,WNW,296,0.0,0.0,18,0.00,,---,0.00,VWS V14.01,2013-04-24 04:25:00,
2013-04-23 21:26:00,58.7,15.3,29.75,WNW,296,0.0,0.0,18,0.00,,---,0.00,VWS V14.01,2013-04-24 04:26:00,
2013-04-23 21:30:00,58.8,15.4,29.75,WNW,296,0.0,0.0,18,0.00,,---,0.00,VWS V14.01,2013-04-24 04:30:00,
2013-04-23 21:31:00,58.8,15.4,29.75,WNW,296,0.0,0.0,18,0.00,,---,0.00,VWS V14.01,2013-04-24 04:31:00,
2013-04-23 21:35:00,58.7,15.3,29.75,WNW,296,0.0,0.0,18,0.00,,---,0.00,VWS V14.01,2013-04-24 04:35:00,
2013-04-23 21:36:00,58.5,15.2,29.75,WNW,296,0.0,0.0,18,0.00,,---,0.00,VWS V14.01,2013-04-24 04:36:00,
2013-04-23 21:40:00,58.4,15.1,29.75,WNW,296,0.0,0.0,18,0.00,,---,0.00,VWS V14.01,2013-04-24 04:40:00,
2013-04-23 21:41:00,58.3,15.0,29.75,WNW,296,0.0,0.0,18,0.00,,---,0.00,VWS V14.01,2013-04-24 04:41:00,
2013-04-23 21:45:00,58.6,15.2,29.76,WNW,296,0.0,0.0,18,0.00,,---,0.00,VWS V14.01,2013-04-24 04:45:00,
2013-04-23 21:46:00,58.6,15.2,29.76,WNW,300,0.0,0.0,18,0.00,,---,0.00,VWS V14.01,2013-04-24 04:46:00,
2013-04-23 21:50:00,58.0,14.8,29.76,WNW,300,0.0,0.0,18,0.00,,---,0.00,VWS V14.01,2013-04-24 04:50:00,
2013-04-23 21:51:00,56.5,13.5,29.76,WNW,300,0.0,0.0,18,0.00,,---,0.00,VWS V14.01,2013-04-24 04:51:00,
2013-04-23 21:55:00,55.8,14.2,29.76,NW,305,0.0,0.0,19,0.00,,---,0.00,VWS V14.01,2013-04-24 04:55:00,
2013-04-23 21:56:00,54.7,13.3,29.76,NW,319,0.0,0.0,19,0.00,,---,0.00,VWS V14.01,2013-04-24 04:56:00,
2013-04-23 22:00:00,54.2,14.0,29.77,NW,318,0.0,0.0,20,0.00,,---,0.00,VWS V14.01,2013-04-24 05:00:00,
2013-04-23 22:01:00,53.7,13.6,29.77,NNW,327,0.0,0.0,20,0.00,,---,0.00,VWS V14.01,2013-04-24 05:01:00,
2013-04-23 22:05:00,53.6,13.5,29.77,NNW,327,0.0,0.0,20,0.00,,---,0.00,VWS V14.01,2013-04-24 05:05:00,
2013-04-23 22:06:00,53.4,13.4,29.76,NNW,327,0.0,0.0,20,0.00,,---,0.00,VWS V14.01,2013-04-24 05:06:00,
2013-04-23 22:10:00,53.3,13.3,29.77,NNW,327,0.0,0.0,20,0.00,,---,0.00,VWS V14.01,2013-04-24 05:10:00,
2013-04-23 22:11:00,53.0,13.0,29.77,NNW,327,0.0,0.0,20,0.00,,---,0.00,VWS V14.01,2013-04-24 05:11:00,
2013-04-23 22:15:00,52.9,12.9,29.77,NNW,327,0.0,0.0,20,0.00,,---,0.00,VWS V14.01,2013-04-24 05:15:00,
2013-04-23 22:16:00,52.7,12.8,29.77,NNW,340,0.0,1.0,20,0.00,,---,0.00,VWS V14.01,2013-04-24 05:16:00,
2013-04-23 22:20:00,52.6,13.8,29.77,NNW,341,0.0,1.0,21,0.00,,---,0.00,VWS V14.01,2013-04-24 05:20:00,
2013-04-23 22:21:00,52.8,14.0,29.77,North,355,0.0,2.0,21,0.00,,---,0.00,VWS V14.01,2013-04-24 05:21:00,
2013-04-23 22:25:00,53.1,14.2,29.77,North,355,0.0,2.0,21,0.00,,---,0.00,VWS V14.01,2013-04-24 05:25:00,
2013-04-23 22:26:00,53.7,13.6,29.77,North,355,0.0,0.0,20,0.00,,---,0.00,VWS V14.01,2013-04-24 05:26:00,
2013-04-23 22:30:00,53.9,13.8,29.78,North,355,0.0,0.0,20,0.00,,---,0.00,VWS V14.01,2013-04-24 05:30:00,
2013-04-23 22:31:00,54.3,14.1,29.77,North,355,0.0,0.0,20,0.00,,---,0.00,VWS V14.01,2013-04-24 05:31:00,
2013-04-23 22:35:00,54.4,14.2,29.78,North,355,0.0,0.0,20,0.00,,---,0.00,VWS V14.01,2013-04-24 05:35:00,
2013-04-23 22:36:00,54.9,14.6,29.77,North,355,0.0,0.0,20,0.00,,---,0.00,VWS V14.01,2013-04-24 05:36:00,
2013-04-23 22:40:00,55.0,14.7,29.78,North,355,0.0,0.0,20,0.00,,---,0.00,VWS V14.01,2013-04-24 05:40:00,
2013-04-23 22:41:00,55.2,14.9,29.78,North,355,0.0,0.0,20,0.00,,---,0.00,VWS V14.01,2013-04-24 05:41:00,
2013-04-23 22:45:00,55.2,13.7,29.78,North,355,0.0,0.0,19,0.00,,---,0.00,VWS V14.01,2013-04-24 05:45:00,
2013-04-23 22:46:00,54.9,13.4,29.78,North,355,0.0,0.0,19,0.00,,---,0.00,VWS V14.01,2013-04-24 05:46:00,
2013-04-23 22:50:00,54.8,14.5,29.78,North,355,0.0,0.0,20,0.00,,---,0.00,VWS V14.01,2013-04-24 05:50:00,
2013-04-23 22:51:00,54.9,14.6,29.78,North,355,0.0,0.0,20,0.00,,---,0.00,VWS V14.01,2013-04-24 05:51:00,
2013-04-23 22:55:00,55.0,14.7,29.78,North,355,0.0,0.0,20,0.00,,---,0.00,VWS V14.01,2013-04-24 05:55:00,
2013-04-23 22:56:00,55.4,15.0,29.78,North,355,0.0,0.0,20,0.00,,---,0.00,VWS V14.01,2013-04-24 05:56:00,
2013-04-23 23:00:00,55.7,15.3,29.78,North,355,0.0,0.0,20,0.00,,---,0.00,VWS V14.01,2013-04-24 06:00:00,
2013-04-23 23:01:00,56.3,15.8,29.78,North,355,0.0,0.0,20,0.00,,---,0.00,VWS V14.01,2013-04-24 06:01:00,
2013-04-23 23:05:00,56.6,14.8,29.78,North,355,0.0,0.0,19,0.00,,---,0.00,VWS V14.01,2013-04-24 06:05:00,
2013-04-23 23:06:00,56.9,15.1,29.79,North,355,0.0,0.0,19,0.00,,---,0.00,VWS V14.01,2013-04-24 06:06:00,
2013-04-23 23:10:00,57.2,15.3,29.79,North,355,0.0,0.0,19,0.00,,---,0.00,VWS V14.01,2013-04-24 06:10:00,
2013-04-23 23:11:00,57.6,15.7,29.79,North,355,0.0,0.0,19,0.00,,---,0.00,VWS V14.01,2013-04-24 06:11:00,
2013-04-23 23:15:00,57.7,15.8,29.78,North,355,0.0,0.0,19,0.00,,---,0.00,VWS V14.01,2013-04-24 06:15:00,
2013-04-23 23:16:00,58.0,16.0,29.78,North,355,0.0,0.0,19,0.00,,---,0.00,VWS V14.01,2013-04-24 06:16:00,
2013-04-23 23:20:00,58.2,16.2,29.79,North,355,0.0,0.0,19,0.00,,---,0.00,VWS V14.01,2013-04-24 06:20:00,
2013-04-23 23:21:00,58.5,16.4,29.78,North,355,0.0,0.0,19,0.00,,---,0.00,VWS V14.01,2013-04-24 06:21:00,
2013-04-23 23:25:00,58.7,16.6,29.78,North,355,0.0,0.0,19,0.00,,---,0.00,VWS V14.01,2013-04-24 06:25:00,
2013-04-23 23:26:00,58.6,16.5,29.78,North,355,0.0,0.0,19,0.00,,---,0.00,VWS V14.01,2013-04-24 06:26:00,
2013-04-23 23:30:00,58.2,16.2,29.78,North,355,0.0,0.0,19,0.00,,---,0.00,VWS V14.01,2013-04-24 06:30:00,
2013-04-23 23:31:00,57.1,15.2,29.79,North,355,0.0,0.0,19,0.00,,---,0.00,VWS V14.01,2013-04-24 06:31:00,
2013-04-23 23:35:00,56.4,14.7,29.79,North,355,0.0,0.0,19,0.00,,---,0.00,VWS V14.01,2013-04-24 06:35:00,
2013-04-23 23:36:00,55.0,14.7,29.79,North,355,0.0,0.0,20,0.00,,---,0.00,VWS V14.01,2013-04-24 06:36:00,
2013-04-23 23:40:00,54.3,15.2,29.79,North,355,0.0,0.0,21,0.00,,---,0.00,VWS V14.01,2013-04-24 06:40:00,
2013-04-23 23:41:00,54.4,15.3,29.79,North,355,3.0,3.0,21,0.00,,---,0.00,VWS V14.01,2013-04-24 06:41:00,
2013-04-23 23:45:00,54.9,15.7,29.79,North,355,3.0,3.0,21,0.00,,---,0.00,VWS V14.01,2013-04-24 06:45:00,
2013-04-23 23:46:00,55.3,16.0,29.79,North,355,0.0,4.0,21,0.00,,---,0.00,VWS V14.01,2013-04-24 06:46:00,
2013-04-23 23:50:00,55.2,16.0,29.79,North,355,0.0,4.0,21,0.00,,---,0.00,VWS V14.01,2013-04-24 06:50:00,
2013-04-23 23:51:00,55.0,15.8,29.79,North,9,0.0,2.0,21,0.00,,---,0.00,VWS V14.01,2013-04-24 06:51:00,
2013-04-23 23:55:00,54.8,15.6,29.79,North,9,0.0,2.0,21,0.00,,---,0.00,VWS V14.01,2013-04-24 06:55:00,
2013-04-23 23:56:00,54.4,15.3,29.79,North,9,0.0,0.0,21,0.00,,---,0.00,VWS V14.01,2013-04-24 06:56:00,